PBO Station Position Time Series. Reference Frame : NAM14
Format Version,1.1.1
4-character ID,LWCK
Station name,Lewis_and_Clark
Begin Date, 2012-02-11
End Date, 2023-06-26
Release Date, 2023-06-27
Reference position, 46.2781334640 North Latitude, -124.0538453941 East Longitude, 39.05759 meters elevation,
Date, North (mm), East (mm), Vertical (mm), North Std. Deviation (mm), East Std. Deviation (mm),              Vertical Std. Deviation (mm), Quality,
2012-02-11,0.00, 0.00, 0.00, 2.29, 1.61, 7.51, repro,
2012-02-12,1.46, 1.48, 0.13, 2.31, 1.61, 7.56, repro,
2012-02-13,0.19, -0.09, 3.75, 2.57, 1.69, 8.04, repro,
2012-02-14,1.33, -0.65, -3.81, 2.34, 1.63, 7.62, repro,
2012-02-15,3.18, 1.13, 2.76, 2.28, 1.58, 7.35, repro,
2012-02-16,0.85, 2.29, 0.10, 2.28, 1.60, 7.44, repro,
2012-02-17,1.70, 1.22, -5.04, 2.34, 1.66, 7.70, repro,
2012-02-18,0.59, 1.25, -3.08, 2.82, 1.99, 9.54, repro,
2012-02-19,3.14, 0.83, 1.71, 2.40, 1.72, 8.07, repro,
2012-02-20,1.17, -0.13, 4.76, 2.31, 1.60, 7.50, repro,
2012-02-21,0.46, 0.62, 5.25, 2.40, 1.69, 7.91, repro,
2012-02-22,1.77, 0.48, 4.67, 2.42, 1.67, 7.80, repro,
2012-02-23,2.53, 1.13, 0.28, 2.35, 1.64, 7.66, repro,
2012-02-24,3.47, 0.83, -6.38, 2.40, 1.62, 7.55, repro,
2012-02-25,2.32, -0.43, 1.78, 2.28, 1.57, 7.41, repro,
2012-02-26,3.15, 3.10, 5.06, 2.32, 1.63, 7.70, repro,
2012-02-27,2.61, 2.01, -0.71, 2.50, 1.75, 8.09, repro,
2012-02-28,-1.48, -0.00, 15.92, 6.13, 3.63, 19.46, repro,
2012-02-29,1.72, 1.30, -1.40, 2.26, 1.60, 7.48, repro,
2012-03-01,1.14, 0.18, -1.36, 2.30, 1.58, 7.43, repro,
2012-03-02,1.76, 1.09, -2.57, 2.73, 2.11, 9.53, repro,
2012-03-03,2.41, 1.86, 4.25, 2.31, 1.59, 7.52, repro,
2012-03-04,2.29, 0.51, -4.86, 2.30, 1.57, 7.50, repro,
2012-03-05,2.63, 0.94, -2.83, 2.25, 1.54, 7.29, repro,
2012-03-06,0.93, 1.56, -5.00, 2.41, 1.64, 7.66, repro,
2012-03-07,1.23, 1.18, 4.38, 2.30, 1.58, 7.49, repro,
2012-03-08,4.71, 1.84, -1.17, 2.40, 1.60, 7.54, repro,
2012-03-09,2.49, 0.48, -1.61, 2.46, 1.62, 7.64, repro,
2012-03-10,2.48, 2.27, 6.15, 2.36, 1.64, 7.69, repro,
2012-03-11,2.28, 0.27, 7.70, 2.41, 1.59, 7.62, repro,
2012-03-12,1.25, 1.16, 10.75, 2.51, 1.74, 8.10, repro,
2012-03-13,0.83, -0.67, -10.86, 2.34, 1.59, 7.61, repro,
2012-03-14,2.65, -0.26, -1.05, 2.30, 1.56, 7.39, repro,
2012-03-15,1.12, 0.44, -0.22, 2.49, 1.62, 7.78, repro,
2012-03-16,3.15, -1.95, -8.04, 2.48, 1.78, 8.25, repro,
2012-03-17,2.94, -1.34, -1.03, 2.28, 1.54, 7.29, repro,
2012-03-18,1.72, -1.29, -5.81, 2.35, 1.59, 7.51, repro,
2012-03-19,4.50, -2.25, -0.24, 2.58, 1.77, 8.14, repro,
2012-03-20,3.93, -1.06, -0.64, 2.36, 1.63, 7.64, repro,
2012-03-21,2.50, -0.16, -11.02, 2.44, 1.72, 8.04, repro,
2012-03-22,3.21, 0.76, -9.15, 2.34, 1.61, 7.52, repro,
2012-03-23,4.32, 0.13, -8.70, 2.29, 1.57, 7.34, repro,
2012-03-24,2.70, 0.69, -3.39, 2.30, 1.58, 7.49, repro,
2012-03-25,2.83, 0.11, -2.38, 2.84, 2.26, 9.81, repro,
2012-03-26,4.25, -1.01, 0.92, 2.32, 1.59, 7.43, repro,
2012-03-27,2.44, -0.95, 0.35, 2.33, 1.58, 7.46, repro,
2012-03-28,1.73, 0.27, -3.13, 2.38, 1.66, 7.77, repro,
2012-03-29,1.51, 0.20, 1.08, 2.31, 1.57, 7.40, repro,
2012-03-30,-0.64, -1.77, 4.97, 2.51, 1.66, 8.05, repro,
2012-03-31,2.58, -0.08, 10.57, 2.26, 1.57, 7.39, repro,
2012-04-01,4.44, 0.31, -0.25, 2.63, 1.85, 8.55, repro,
2012-04-02,3.05, 1.85, -5.48, 2.28, 1.59, 7.46, repro,
2012-04-03,1.98, 0.74, -11.25, 2.25, 1.56, 7.33, repro,
2012-04-04,3.82, 1.90, -7.91, 2.69, 2.01, 9.39, repro,
2012-04-05,2.91, 2.69, -7.39, 2.71, 1.82, 8.75, repro,
2012-04-06,3.14, 1.95, 0.87, 2.21, 1.55, 7.22, repro,
2012-04-07,4.20, 1.77, -5.75, 2.25, 1.56, 7.31, repro,
2012-04-08,3.43, 1.73, -4.22, 2.26, 1.57, 7.39, repro,
2012-04-09,4.02, 0.59, -7.44, 2.29, 1.57, 7.38, repro,
2012-04-10,1.80, -0.01, -11.60, 2.26, 1.56, 7.32, repro,
2012-04-11,3.77, 0.84, -4.44, 2.24, 1.55, 7.33, repro,
2012-04-12,2.94, 0.78, -9.17, 2.67, 1.79, 8.74, repro,
2012-04-13,3.32, 0.55, -4.12, 2.26, 1.58, 7.47, repro,
2012-04-14,4.56, 0.06, -10.58, 2.25, 1.56, 7.41, repro,
2012-04-15,3.94, 1.24, -6.94, 2.27, 1.54, 7.32, repro,
2012-04-16,1.31, 2.06, -6.60, 2.25, 1.55, 7.34, repro,
2012-04-17,4.50, 1.51, -3.55, 2.29, 1.59, 7.45, repro,
2012-04-18,0.13, -0.27, -5.12, 2.60, 1.81, 8.57, repro,
2012-04-19,1.78, 0.21, -15.24, 2.27, 1.56, 7.43, repro,
2012-04-20,2.55, 2.63, -6.20, 2.86, 1.83, 8.88, repro,
2012-04-21,4.13, 0.84, -14.15, 2.25, 1.55, 7.32, repro,
2012-04-22,2.47, 0.78, -9.36, 2.36, 1.67, 7.81, repro,
2012-04-23,3.52, -0.15, -11.39, 2.28, 1.56, 7.40, repro,
2012-04-24,1.01, 1.28, 3.12, 2.31, 1.62, 7.59, repro,
2012-04-25,1.40, -0.51, -4.73, 2.31, 1.61, 7.55, repro,
2012-04-26,3.66, 0.61, -6.44, 2.26, 1.55, 7.35, repro,
2012-04-27,2.72, 0.49, -2.71, 2.41, 1.61, 7.68, repro,
2012-04-28,2.58, 2.04, -5.22, 2.61, 1.88, 8.76, repro,
2012-04-29,5.38, 0.75, -5.13, 2.25, 1.58, 7.38, repro,
2012-04-30,1.44, 1.13, -2.41, 2.30, 1.61, 7.61, repro,
2012-05-01,0.64, 2.13, 1.23, 2.29, 1.59, 7.52, repro,
2012-05-02,4.07, 1.48, -0.46, 2.35, 1.62, 7.63, repro,
2012-05-03,2.45, -0.41, -3.91, 2.31, 1.56, 7.43, repro,
2012-05-04,3.20, 1.47, -1.22, 2.30, 1.61, 7.53, repro,
2012-05-05,3.37, 1.53, -9.16, 2.24, 1.57, 7.32, repro,
2012-05-06,4.93, 1.37, -14.26, 2.31, 1.62, 7.68, repro,
2012-05-07,3.20, 1.91, -14.72, 2.29, 1.59, 7.42, repro,
2012-05-08,5.44, 1.11, -3.47, 2.27, 1.57, 7.48, repro,
2012-05-09,2.72, 0.58, -7.90, 2.24, 1.55, 7.26, repro,
2012-05-10,6.76, 0.80, -1.93, 2.26, 1.56, 7.39, repro,
2012-05-11,6.55, -0.79, -12.52, 2.35, 1.67, 7.74, repro,
2012-05-12,3.95, -0.92, -7.83, 2.23, 1.53, 7.25, repro,
2012-05-13,2.91, -0.02, -12.01, 2.47, 1.79, 8.22, repro,
2012-05-14,4.06, 1.01, -0.12, 2.23, 1.55, 7.28, repro,
2012-05-15,4.01, 1.02, 1.49, 2.23, 1.54, 7.25, repro,
2012-05-16,4.84, -0.46, -4.00, 2.24, 1.57, 7.39, repro,
2012-05-17,4.61, -1.79, 2.02, 2.24, 1.56, 7.33, repro,
2012-05-18,4.84, -0.48, -3.60, 2.29, 1.58, 7.44, repro,
2012-05-19,3.74, 0.45, -8.58, 2.30, 1.58, 7.44, repro,
2012-05-20,2.61, 1.57, 7.91, 2.34, 1.61, 7.53, repro,
2012-05-21,4.11, 2.00, -2.29, 2.35, 1.65, 7.72, repro,
2012-05-22,1.60, 1.07, 0.84, 2.31, 1.60, 7.52, repro,
2012-05-23,2.63, 1.43, 1.16, 2.31, 1.59, 7.51, repro,
2012-05-24,4.02, 0.07, 7.73, 2.28, 1.58, 7.47, repro,
2012-05-25,3.91, -1.12, -1.06, 2.34, 1.61, 7.56, repro,
2012-05-26,4.11, -0.07, -5.19, 2.33, 1.60, 7.54, repro,
2012-05-27,5.12, -0.09, 4.31, 2.30, 1.62, 7.51, repro,
2012-05-28,4.82, -0.54, -4.87, 2.28, 1.61, 7.52, repro,
2012-05-29,3.73, -0.11, -6.15, 2.31, 1.60, 7.43, repro,
2012-05-30,2.16, 0.33, 5.56, 2.25, 1.56, 7.41, repro,
2012-05-31,3.75, 1.10, -5.84, 2.76, 2.22, 9.99, repro,
2012-06-01,4.28, 1.11, 3.73, 2.28, 1.57, 7.45, repro,
2012-06-02,3.43, -0.11, 4.91, 2.44, 1.63, 7.75, repro,
2012-06-03,3.61, -0.65, -3.41, 2.26, 1.56, 7.37, repro,
2012-06-04,2.08, -0.25, 3.74, 2.29, 1.61, 7.52, repro,
2012-06-05,2.45, 2.09, 5.60, 2.29, 1.56, 7.43, repro,
2012-06-06,4.74, 1.86, 6.26, 2.33, 1.60, 7.55, repro,
2012-06-07,2.23, 0.41, -2.34, 2.29, 1.60, 7.61, repro,
2012-06-08,3.58, 1.79, 8.64, 2.28, 1.57, 7.45, repro,
2012-06-09,3.38, -0.14, 3.68, 2.25, 1.55, 7.34, repro,
2012-06-10,3.50, 2.33, 7.24, 2.29, 1.57, 7.44, repro,
2012-06-11,2.74, 1.31, 0.73, 2.30, 1.59, 7.53, repro,
2012-06-12,2.15, 0.95, 0.72, 2.40, 1.62, 7.71, repro,
2012-06-13,3.30, -0.18, 2.67, 2.26, 1.56, 7.38, repro,
2012-06-14,4.52, -3.54, -10.02, 3.69, 2.59, 11.66, repro,
2012-06-15,2.75, 0.11, 6.27, 2.28, 1.57, 7.44, repro,
2012-06-16,3.34, 2.13, 4.48, 2.30, 1.56, 7.48, repro,
2012-06-17,4.27, 1.60, 12.30, 2.38, 1.58, 7.72, repro,
2012-06-18,3.02, 0.22, -0.37, 2.76, 2.00, 8.98, repro,
2012-06-19,2.97, -0.15, 0.14, 2.32, 1.60, 7.55, repro,
2012-06-20,4.22, -0.90, -1.37, 2.26, 1.54, 7.34, repro,
2012-06-21,4.33, -1.30, 0.09, 2.28, 1.58, 7.52, repro,
2012-06-22,4.02, 0.73, -0.31, 2.28, 1.56, 7.41, repro,
2012-06-23,3.01, -0.25, 2.02, 2.56, 1.74, 8.49, repro,
2012-06-24,2.47, 0.04, 2.28, 2.32, 1.58, 7.54, repro,
2012-06-25,0.72, -0.21, 6.32, 2.31, 1.57, 7.52, repro,
2012-06-26,1.82, -0.76, -2.25, 2.94, 1.92, 9.54, repro,
2012-06-27,3.70, 0.50, 0.73, 2.26, 1.55, 7.31, repro,
2012-06-28,1.82, 0.73, 9.78, 2.33, 1.60, 7.68, repro,
2012-06-29,2.30, 0.08, 0.13, 2.30, 1.58, 7.53, repro,
2012-06-30,3.97, -0.41, 4.11, 2.27, 1.56, 7.42, repro,
2012-07-01,3.41, -2.01, 3.85, 2.32, 1.58, 7.43, repro,
2012-07-02,5.32, -0.68, 4.15, 2.26, 1.56, 7.36, repro,
2012-07-03,1.90, 1.70, 5.98, 2.31, 1.58, 7.53, repro,
2012-07-04,2.85, 0.68, -4.95, 2.31, 1.58, 7.57, repro,
2012-07-05,5.32, -0.99, -0.13, 2.37, 1.61, 7.73, repro,
2012-07-06,3.46, -1.63, -1.83, 2.31, 1.59, 7.57, repro,
2012-07-07,5.70, -4.43, -13.82, 2.64, 1.97, 9.03, repro,
2012-07-08,1.30, 1.26, 6.03, 2.27, 1.56, 7.31, repro,
2012-07-09,1.65, 0.74, 1.69, 2.54, 1.86, 8.84, repro,
2012-07-10,2.67, -2.13, -6.02, 2.70, 1.96, 8.92, repro,
2012-07-11,5.66, -0.52, -1.34, 2.41, 1.66, 7.76, repro,
2012-07-12,4.46, -0.57, 4.31, 2.26, 1.56, 7.31, repro,
2012-07-13,4.64, -0.21, 1.34, 2.26, 1.55, 7.28, repro,
2012-07-14,4.29, 0.13, 9.90, 2.30, 1.56, 7.52, repro,
2012-07-15,2.14, 0.24, 13.85, 2.32, 1.58, 7.53, repro,
2012-07-16,5.42, 1.68, 1.87, 2.84, 1.99, 9.46, repro,
2012-07-17,4.75, -0.88, -1.52, 2.28, 1.55, 7.40, repro,
2012-07-18,5.64, -2.50, 0.37, 2.68, 1.86, 8.78, repro,
2012-07-19,3.49, -0.56, 5.96, 2.26, 1.54, 7.35, repro,
2012-07-20,3.44, 0.23, 4.23, 2.37, 1.63, 7.76, repro,
2012-07-21,2.81, -0.78, 5.63, 2.32, 1.55, 7.41, repro,
2012-07-22,5.30, -0.89, 3.02, 2.29, 1.56, 7.37, repro,
2012-07-23,4.94, -2.17, -4.44, 2.27, 1.53, 7.23, repro,
2012-07-24,3.82, -0.56, 3.63, 2.34, 1.56, 7.43, repro,
2012-07-25,4.12, -0.29, 9.10, 2.36, 1.55, 7.45, repro,
2012-07-26,2.48, 0.09, 9.03, 2.31, 1.58, 7.56, repro,
2012-07-27,3.22, -0.07, 6.14, 2.32, 1.58, 7.64, repro,
2012-07-28,4.01, -0.32, 5.46, 2.29, 1.59, 7.56, repro,
2012-07-29,4.21, 0.22, 2.82, 2.25, 1.55, 7.35, repro,
2012-07-30,3.76, -0.64, 4.94, 2.27, 1.56, 7.45, repro,
2012-07-31,4.25, -0.22, 15.61, 2.46, 1.72, 8.27, repro,
2012-08-01,2.65, 1.07, 12.20, 2.47, 1.77, 8.24, repro,
2012-08-02,3.51, 1.22, 7.44, 2.56, 1.86, 8.61, repro,
2012-08-03,3.24, -0.32, 9.00, 2.36, 1.63, 7.60, repro,
2012-08-04,2.92, -0.01, 15.31, 2.27, 1.58, 7.55, repro,
2012-08-05,2.23, 1.05, 13.48, 3.44, 2.36, 11.02, repro,
2012-08-16,1.79, 2.41, 25.09, 3.07, 2.10, 10.02, repro,
2012-08-17,3.73, 0.66, 7.84, 2.68, 2.00, 9.19, repro,
2012-08-18,3.53, -0.69, 2.38, 2.28, 1.58, 7.55, repro,
2012-08-19,1.79, -0.78, 4.43, 2.27, 1.62, 7.61, repro,
2012-08-20,6.01, -0.96, 10.43, 2.60, 1.81, 8.87, repro,
2012-08-21,1.70, -0.98, 4.34, 2.31, 1.57, 7.49, repro,
2012-08-22,2.87, -1.00, 8.42, 2.67, 1.88, 8.77, repro,
2012-08-23,2.65, -0.89, 6.56, 2.33, 1.58, 7.51, repro,
2012-08-24,3.74, -1.03, 5.86, 2.24, 1.54, 7.27, repro,
2012-08-25,2.37, 0.30, 13.71, 2.61, 1.96, 9.32, repro,
2012-08-26,1.96, 0.75, 14.96, 2.37, 1.64, 7.78, repro,
2012-08-27,0.08, 2.22, 15.52, 2.34, 1.63, 7.75, repro,
2012-08-28,4.11, 0.30, 12.31, 2.29, 1.60, 7.56, repro,
2012-08-29,1.95, -0.65, 8.13, 2.35, 1.62, 7.69, repro,
2012-08-30,2.46, 0.02, 11.89, 2.35, 1.64, 7.69, repro,
2012-08-31,1.91, 0.37, 12.68, 2.24, 1.57, 7.44, repro,
2012-09-01,3.44, 0.60, 0.01, 2.36, 1.60, 7.70, repro,
2012-09-02,2.94, 0.27, 10.49, 2.44, 1.67, 7.95, repro,
2012-09-03,1.79, 0.96, 10.41, 2.26, 1.57, 7.34, repro,
2012-09-04,2.40, 1.11, 10.58, 2.29, 1.58, 7.44, repro,
2012-09-05,3.65, 0.18, 14.14, 2.36, 1.64, 7.71, repro,
2012-09-06,2.82, 2.11, 18.62, 2.26, 1.60, 7.54, repro,
2012-09-07,2.11, 1.85, 11.36, 2.33, 1.64, 7.61, repro,
2012-09-08,2.45, 0.89, 5.31, 2.53, 1.83, 8.48, repro,
2012-09-09,2.93, 1.27, 8.30, 2.26, 1.55, 7.26, repro,
2012-09-10,4.52, 1.17, 10.30, 2.33, 1.59, 7.47, repro,
2012-09-11,4.25, -0.37, 7.82, 2.34, 1.61, 7.59, repro,
2012-09-12,4.67, 2.37, 13.20, 2.35, 1.64, 7.69, repro,
2012-09-13,1.33, 0.07, -3.25, 2.59, 1.90, 8.80, repro,
2012-09-14,2.75, 0.05, 8.97, 2.29, 1.58, 7.40, repro,
2012-09-15,3.27, -0.63, 7.54, 2.28, 1.58, 7.41, repro,
2012-09-16,4.86, 0.51, 4.56, 2.38, 1.65, 7.68, repro,
2012-09-17,2.84, 1.17, 14.59, 2.31, 1.61, 7.55, repro,
2012-09-18,3.32, 1.04, 15.55, 2.30, 1.63, 7.60, repro,
2012-09-19,2.59, -0.12, 8.37, 2.31, 1.57, 7.42, repro,
2012-09-20,2.73, -0.24, 16.29, 2.30, 1.62, 7.53, repro,
2012-09-21,4.55, 1.15, 13.76, 2.28, 1.56, 7.37, repro,
2012-09-22,3.91, 0.47, 12.94, 2.38, 1.66, 7.76, repro,
2012-09-23,3.24, 1.90, 14.70, 2.25, 1.58, 7.38, repro,
2012-09-24,3.42, 0.76, 7.91, 2.79, 1.93, 9.12, repro,
2012-09-25,4.02, -1.82, 8.48, 2.34, 1.67, 7.75, repro,
2012-09-26,2.88, -0.36, 7.79, 2.30, 1.60, 7.50, repro,
2012-09-27,3.86, 0.30, 20.03, 2.88, 1.97, 9.51, repro,
2012-09-28,5.20, 0.07, 17.63, 2.39, 1.71, 8.01, repro,
2012-09-29,2.58, -0.09, 14.38, 2.27, 1.58, 7.43, repro,
2012-09-30,4.34, -0.57, 5.86, 2.31, 1.62, 7.64, repro,
2012-10-01,3.15, 1.44, 7.74, 2.35, 1.62, 7.61, repro,
2012-10-02,3.43, -0.09, 12.64, 2.23, 1.56, 7.31, repro,
2012-10-03,5.10, 1.26, 8.78, 2.26, 1.58, 7.39, repro,
2012-10-04,3.61, 1.46, 11.31, 2.26, 1.59, 7.43, repro,
2012-10-05,2.45, 0.47, 9.27, 2.27, 1.60, 7.44, repro,
2012-10-06,2.62, 0.75, 5.83, 2.30, 1.61, 7.64, repro,
2012-10-07,2.24, 0.92, 15.40, 2.32, 1.59, 7.49, repro,
2012-10-08,2.81, 0.19, 10.47, 2.30, 1.59, 7.49, repro,
2012-10-09,4.83, -0.13, 4.29, 2.33, 1.64, 7.61, repro,
2012-10-10,2.82, 0.97, 10.31, 2.36, 1.64, 7.67, repro,
2012-10-11,4.18, -0.17, -4.20, 2.80, 2.19, 9.94, repro,
2012-10-12,3.29, 0.69, 16.11, 2.37, 1.64, 7.83, repro,
2012-10-13,2.26, 2.36, 4.50, 2.33, 1.70, 7.79, repro,
2012-10-14,1.32, -1.52, 5.65, 2.55, 1.79, 8.30, repro,
2012-10-15,2.29, -0.26, 16.24, 2.41, 1.64, 7.82, repro,
2012-10-16,2.31, 0.60, 14.02, 2.35, 1.61, 7.63, repro,
2012-10-17,4.84, 1.45, 2.63, 2.34, 1.58, 7.52, repro,
2012-10-18,2.56, 2.41, 7.90, 2.31, 1.59, 7.54, repro,
2012-10-19,5.42, 1.78, 7.00, 2.32, 1.59, 7.55, repro,
2012-10-20,3.95, 1.56, 12.59, 2.40, 1.68, 7.88, repro,
2012-10-21,2.88, 0.98, 5.01, 2.73, 2.06, 9.55, repro,
2012-10-22,1.93, 0.04, 10.57, 2.81, 1.86, 8.86, repro,
2012-11-14,7.60, 1.25, 0.41, 4.73, 3.75, 15.84, repro,
2012-11-15,1.89, 2.31, -6.16, 2.40, 1.64, 7.74, repro,
2012-11-16,3.11, 1.80, -0.60, 2.30, 1.57, 7.39, repro,
2012-11-17,-0.21, 0.53, 7.59, 2.32, 1.59, 7.53, repro,
2013-02-07,1.13, -0.43, -8.31, 3.23, 2.29, 12.17, repro,
2013-02-08,3.20, 2.94, 5.47, 3.35, 2.43, 12.85, repro,
2013-02-12,3.28, 3.71, -16.35, 3.72, 3.01, 15.29, repro,
2013-02-13,0.23, 0.14, -13.94, 3.42, 2.42, 12.83, repro,
2013-02-14,-0.59, 2.17, -2.82, 3.19, 2.28, 12.08, repro,
2013-02-15,2.22, 1.74, -8.71, 3.15, 2.22, 11.70, repro,
2013-02-16,4.58, 0.49, -17.42, 3.04, 2.25, 11.60, repro,
2013-02-17,2.35, 2.18, -13.15, 3.10, 2.26, 12.01, repro,
2013-02-18,1.46, 0.62, -12.74, 3.38, 2.38, 12.98, repro,
2013-02-19,-2.71, 1.87, 1.96, 3.44, 2.39, 12.84, repro,
2013-02-20,-0.51, 2.41, 7.03, 3.42, 2.39, 12.84, repro,
2013-02-21,1.31, 3.52, -13.55, 3.41, 2.32, 12.38, repro,
2013-02-22,-0.02, -1.45, -14.21, 3.46, 2.36, 12.44, repro,
2013-02-23,2.93, 2.00, -6.69, 3.55, 2.41, 12.75, repro,
2013-02-24,1.75, 1.93, -4.78, 3.30, 2.43, 13.06, repro,
2013-02-25,0.06, 0.89, -11.13, 3.42, 2.44, 13.04, repro,
2013-02-26,1.09, 3.86, 0.33, 4.05, 3.06, 15.81, repro,
2013-02-27,1.51, 1.70, -19.44, 3.34, 2.30, 12.22, repro,
2013-02-28,1.09, 0.11, -8.29, 3.25, 2.48, 12.93, repro,
2013-03-01,-1.27, 0.86, -11.88, 3.33, 2.30, 12.37, repro,
2013-03-02,1.38, -1.54, -25.31, 3.40, 2.42, 12.76, repro,
2013-03-03,2.28, 0.77, -16.00, 3.20, 2.30, 12.14, repro,
2013-03-04,-0.21, 0.59, -18.94, 3.34, 2.37, 12.57, repro,
2013-03-05,0.83, -0.21, -22.71, 4.23, 3.40, 18.70, repro,
2013-03-06,3.15, 0.36, -15.22, 3.34, 2.37, 12.72, repro,
2013-03-07,4.47, 0.06, -10.26, 3.78, 2.61, 14.33, repro,
2013-03-08,4.69, 1.59, -9.85, 3.44, 2.50, 13.31, repro,
2013-03-09,1.99, 1.35, -11.19, 3.25, 2.38, 12.58, repro,
2013-03-10,0.47, 3.67, -11.39, 3.38, 2.46, 13.16, repro,
2013-03-11,-0.76, 1.19, -11.05, 3.35, 2.51, 13.47, repro,
2013-03-12,0.14, 3.86, 0.97, 3.67, 2.54, 13.80, repro,
2013-03-13,1.36, 1.79, -0.30, 3.30, 2.43, 12.85, repro,
2013-03-14,2.05, 3.61, -4.52, 3.34, 2.41, 12.93, repro,
2013-03-15,0.41, 3.09, -1.84, 3.53, 2.47, 13.38, repro,
2013-03-16,1.14, 3.11, -9.92, 3.47, 2.52, 13.14, repro,
2013-03-17,2.43, 0.65, -19.57, 3.32, 2.50, 12.96, repro,
2013-03-18,1.88, 2.23, -0.08, 3.37, 2.46, 12.72, repro,
2013-03-19,3.37, 4.36, 6.97, 3.19, 2.42, 12.83, repro,
2013-03-20,2.13, 1.41, -12.09, 3.50, 2.67, 13.55, repro,
2013-03-21,4.62, 2.84, -12.09, 3.20, 2.34, 12.15, repro,
2013-03-22,1.88, 0.66, -8.52, 3.22, 2.47, 12.86, repro,
2013-03-23,3.92, 2.09, -12.68, 3.56, 2.55, 13.82, repro,
2013-03-24,2.15, 0.73, -9.31, 3.35, 2.55, 13.29, repro,
2013-03-25,1.93, 2.25, -4.77, 3.51, 2.59, 13.43, repro,
2013-03-26,2.51, 2.21, -5.98, 3.49, 2.50, 13.22, repro,
2013-03-27,0.80, 1.85, -8.14, 3.22, 2.37, 12.25, repro,
2013-03-28,3.42, 2.15, -24.13, 3.34, 2.47, 13.13, repro,
2013-03-29,2.48, 1.85, -11.10, 3.24, 2.39, 12.78, repro,
2013-03-30,3.64, 1.47, -18.65, 3.85, 3.06, 16.35, repro,
2013-03-31,4.58, 2.14, -0.98, 3.29, 2.38, 12.65, repro,
2013-04-01,1.05, 3.88, -2.92, 3.35, 2.45, 12.84, repro,
2013-04-02,3.36, 1.31, -10.28, 2.93, 2.29, 11.57, repro,
2013-04-03,3.79, 1.71, -28.00, 3.48, 2.53, 13.34, repro,
2013-04-04,2.69, 1.97, -22.25, 3.22, 2.48, 12.45, repro,
2013-04-05,3.34, 2.55, 6.00, 3.43, 2.88, 14.15, repro,
2013-04-06,0.94, 1.06, 10.27, 3.34, 2.69, 13.59, repro,
2013-04-07,2.12, 2.00, -4.68, 3.12, 2.40, 12.08, repro,
2013-04-08,3.51, 0.03, -22.83, 3.29, 2.49, 13.09, repro,
2013-04-09,1.69, 0.24, -10.49, 3.27, 2.45, 12.82, repro,
2013-04-10,2.36, 0.32, -16.71, 3.24, 2.47, 13.02, repro,
2013-04-11,2.52, 1.79, 6.93, 3.06, 2.36, 11.88, repro,
2013-04-12,1.41, 2.75, 15.35, 3.27, 2.52, 12.98, repro,
2013-04-13,-0.41, -0.11, -0.08, 3.13, 2.46, 12.63, repro,
2013-04-14,4.47, 0.96, -10.84, 3.26, 2.48, 13.02, repro,
2013-04-15,3.14, 1.83, -6.41, 3.33, 2.54, 13.50, repro,
2013-04-16,4.93, 1.63, 4.27, 3.38, 2.72, 13.92, repro,
2013-04-17,2.26, 2.55, -14.93, 3.30, 2.48, 13.00, repro,
2013-04-18,1.57, 2.74, -15.98, 3.25, 2.42, 12.81, repro,
2013-04-19,1.65, 0.48, -13.74, 3.48, 2.70, 14.75, repro,
2013-04-26,1.99, 0.69, -14.55, 3.21, 2.51, 13.27, repro,
2013-04-27,-0.14, 1.92, -3.79, 3.30, 2.40, 12.93, repro,
2013-04-28,3.12, 1.97, -17.66, 3.17, 2.34, 12.42, repro,
2013-04-29,1.47, -1.59, -10.37, 3.09, 2.35, 12.39, repro,
2013-04-30,3.77, -1.27, -14.76, 3.17, 2.27, 11.79, repro,
2013-05-01,1.41, -0.58, -18.02, 3.27, 2.26, 12.00, repro,
2013-05-02,4.36, 3.13, -5.65, 4.08, 3.42, 17.81, repro,
2013-05-03,1.49, 0.39, -10.78, 3.19, 2.33, 12.19, repro,
2013-05-04,4.39, -0.45, -13.37, 3.30, 2.42, 12.59, repro,
2013-05-05,5.72, -2.73, -11.26, 3.07, 2.41, 12.44, repro,
2013-05-06,1.53, -2.18, -5.16, 3.07, 2.30, 11.95, repro,
2013-05-07,1.81, -0.90, -11.44, 3.13, 2.28, 11.85, repro,
2013-05-08,1.29, 2.24, -5.71, 3.71, 3.77, 17.59, repro,
2013-05-09,2.06, 0.55, -11.95, 3.27, 2.45, 12.36, repro,
2013-05-10,3.48, -2.27, -16.06, 3.07, 2.33, 11.93, repro,
2013-05-11,2.81, -0.60, -9.14, 3.37, 2.61, 13.16, repro,
2013-05-12,4.85, -2.49, -15.22, 3.30, 2.54, 13.28, repro,
2013-05-13,1.11, -1.75, -12.08, 3.26, 2.39, 12.26, repro,
2013-05-14,3.40, -2.27, -3.95, 3.05, 2.26, 11.72, repro,
2013-05-15,4.27, -0.98, -8.28, 3.12, 2.34, 11.89, repro,
2013-05-16,0.96, -2.31, -8.29, 3.07, 2.28, 11.68, repro,
2013-05-17,1.43, -3.71, -19.12, 3.25, 2.45, 12.73, repro,
2013-05-18,1.49, -2.41, -7.50, 3.20, 2.34, 11.93, repro,
2013-05-19,2.20, -1.01, -14.03, 3.28, 2.44, 12.40, repro,
2013-05-20,2.02, 0.31, -7.65, 3.15, 2.34, 11.86, repro,
2013-05-21,2.14, -0.58, -14.29, 2.98, 2.24, 11.28, repro,
2013-05-22,3.85, -3.42, -19.23, 3.24, 2.44, 12.33, repro,
2013-05-23,2.73, -2.00, -12.14, 3.10, 2.28, 11.78, repro,
2013-05-24,2.04, -2.49, -14.85, 6.35, 4.90, 24.78, repro,
2013-05-26,4.02, 0.00, -12.25, 4.22, 3.02, 15.14, repro,
2013-05-27,3.09, -2.65, -5.26, 3.07, 2.21, 11.22, repro,
2013-05-28,1.20, -2.16, -8.44, 2.99, 2.19, 11.19, repro,
2013-05-29,2.64, -1.02, -0.24, 3.13, 2.42, 12.17, repro,
2013-05-30,-0.44, 0.53, 11.03, 3.22, 2.31, 11.89, repro,
2013-05-31,0.65, 0.43, 0.48, 3.05, 2.27, 11.60, repro,
2013-06-01,5.72, -0.96, -16.60, 3.26, 2.47, 12.82, repro,
2013-06-02,2.88, -2.29, -11.05, 3.31, 2.45, 12.98, repro,
2013-06-03,1.92, -2.54, -3.56, 3.74, 2.74, 14.39, repro,
2013-06-04,0.56, -1.76, -2.97, 3.23, 2.40, 12.54, repro,
2013-06-05,0.10, -1.14, -7.21, 3.22, 2.31, 11.82, repro,
2013-06-06,0.24, -0.00, -1.51, 3.21, 2.34, 12.29, repro,
2013-06-07,3.65, -0.32, -7.27, 3.11, 2.31, 11.97, repro,
2013-06-08,-0.35, -1.01, -7.54, 3.28, 2.40, 12.40, repro,
2013-06-09,1.44, -3.79, -9.52, 3.56, 2.55, 13.38, repro,
2013-06-10,0.13, -5.19, -13.00, 3.53, 2.55, 13.22, repro,
2013-06-11,2.25, -2.84, -4.77, 3.14, 2.25, 11.61, repro,
2013-06-12,3.16, -1.58, -12.98, 3.23, 2.41, 12.45, repro,
2013-06-13,3.65, -4.09, -26.97, 3.17, 2.33, 12.11, repro,
2013-06-14,0.68, -3.19, -4.78, 3.17, 2.25, 11.50, repro,
2013-06-15,1.91, -1.57, -6.42, 3.20, 2.25, 11.71, repro,
2013-06-16,2.79, -1.70, -1.86, 3.74, 2.92, 14.97, repro,
2013-06-17,3.04, -4.39, -7.12, 4.07, 3.10, 16.69, repro,
2013-06-18,3.68, -4.74, -14.57, 3.15, 2.30, 11.50, repro,
2013-06-19,0.66, -3.76, -9.69, 3.66, 2.65, 14.73, repro,
2013-06-20,2.87, -1.91, 3.70, 3.24, 2.37, 12.19, repro,
2013-06-21,3.05, -3.34, -18.31, 3.60, 3.10, 14.86, repro,
2013-06-22,0.86, -1.34, 6.33, 3.06, 2.23, 11.52, repro,
2013-06-23,-1.87, -0.85, 5.62, 4.34, 3.55, 19.91, repro,
2013-06-24,1.80, -0.37, 13.30, 4.52, 3.84, 21.28, repro,
2013-06-25,4.82, -2.39, 9.46, 4.57, 4.02, 16.92, repro,
2013-06-26,0.72, -2.10, 8.29, 3.53, 2.77, 14.47, repro,
2013-06-27,1.88, -4.33, -14.19, 4.15, 3.16, 15.00, repro,
2013-06-28,3.10, -1.35, 12.75, 3.53, 2.69, 13.46, repro,
2013-06-29,5.26, -1.00, 2.79, 4.07, 3.04, 14.60, repro,
2013-06-30,2.23, -6.02, -8.93, 3.70, 2.88, 13.51, repro,
2013-07-01,3.17, -4.30, 5.25, 3.30, 2.35, 11.55, repro,
2013-07-02,2.01, -2.56, 3.02, 2.98, 2.10, 10.87, repro,
2013-07-03,0.92, -4.91, -4.84, 3.64, 2.42, 13.05, repro,
2013-07-04,3.76, -2.89, -10.88, 3.09, 2.15, 11.44, repro,
2013-07-05,3.09, -2.45, 0.35, 2.95, 2.06, 10.67, repro,
2013-07-06,5.58, -2.16, 4.29, 3.14, 2.28, 11.74, repro,
2013-07-07,1.47, -1.74, -4.05, 3.21, 2.17, 11.36, repro,
2013-07-08,1.91, -2.09, 0.97, 3.35, 2.31, 12.14, repro,
2013-07-09,2.12, -1.67, 7.36, 3.04, 2.14, 11.14, repro,
2013-07-10,-1.05, 2.20, 7.68, 3.12, 2.28, 11.78, repro,
2013-07-11,6.07, -3.11, -2.28, 3.29, 2.45, 12.27, repro,
2013-07-12,0.37, -2.74, 3.91, 3.06, 2.21, 11.41, repro,
2013-07-13,1.44, -1.16, 5.08, 3.66, 2.34, 12.22, repro,
2013-07-19,0.20, -0.45, -1.57, 6.33, 6.07, 27.61, repro,
2013-07-20,-5.69, -0.71, 0.75, 6.23, 5.14, 24.41, repro,
2013-07-24,1.75, -2.90, -1.79, 4.64, 3.70, 17.57, repro,
2013-07-25,2.48, -1.25, 3.10, 3.04, 2.10, 10.83, repro,
2013-07-26,4.03, -4.87, -12.02, 3.05, 2.19, 11.41, repro,
2013-07-27,4.00, -2.59, -15.86, 3.07, 2.22, 11.38, repro,
2013-07-28,4.48, -1.89, 0.60, 3.06, 2.21, 11.35, repro,
2013-07-29,4.52, -1.42, 10.48, 3.13, 2.14, 11.43, repro,
2013-07-30,0.34, -1.25, 11.02, 3.08, 2.13, 11.29, repro,
2013-07-31,3.52, -2.12, 3.85, 3.24, 2.37, 12.60, repro,
2013-08-01,1.41, -1.71, -5.44, 3.03, 2.19, 11.23, repro,
2013-08-02,3.49, -1.95, -14.13, 3.00, 2.24, 11.59, repro,
2013-08-03,0.50, -1.79, -3.20, 2.98, 2.14, 11.14, repro,
2013-08-04,0.92, -2.56, 1.70, 3.17, 2.23, 12.01, repro,
2013-08-05,3.59, -2.01, -0.35, 3.41, 2.23, 11.98, repro,
2013-08-06,2.86, -2.80, -6.36, 3.78, 2.83, 14.58, repro,
2013-08-07,0.94, -4.75, -8.54, 3.47, 2.82, 14.23, repro,
2013-08-08,1.18, -1.23, 2.95, 3.07, 2.18, 11.52, repro,
2013-08-09,1.34, -1.49, 3.77, 3.14, 2.22, 11.70, repro,
2013-08-10,-0.22, -2.33, -0.92, 3.48, 2.91, 14.42, repro,
2013-08-11,2.80, -2.66, -3.43, 3.09, 2.22, 11.64, repro,
2013-08-12,1.71, -2.68, -1.81, 3.19, 2.27, 11.91, repro,
2013-08-13,3.28, -0.96, -3.00, 3.38, 2.50, 13.22, repro,
2013-08-14,0.86, -1.89, 5.69, 3.25, 2.35, 12.56, repro,
2013-08-15,2.54, -4.88, -5.03, 3.30, 2.48, 12.59, repro,
2013-08-16,4.25, -3.85, 1.65, 3.27, 2.28, 12.13, repro,